RH
70 70 69 70 68 62 53 45 39 35 35 35 34 32 31 27 22 22 21 22 20 17 15 13 15 12 21 46 65 86 100 102 103 104 103 102 99 94 84 68 52 37 29 24 23 27 26 23 25 23 23 22
72 72 72 71 65 55 46 40 37 36 37 36 32 27 24 22 20 20 21 21 19 16 15 14 15 14 23 55 89 102 101 102 102 100 101 102 102 104 100 87 70 50 34 27 24 26 30 28 27 24 28 36
71 72 71 67 58 48 41 38 37 36 34 31 25 21 20 20 18 18 21 20 18 17 15 17 16 17 30 51 78 99 101 99 101 100 100 101 99 97 96 93 91 73 48 38 33 32 34 31 28 25 27 36
65 66 63 59 50 42 39 38 36 31 26 23 20 20 20 19 16 17 19 19 19 17 16 18 19 16 31 51 65 88 101 99 100 102 99 101 100 92 86 84 81 69 57 52 44 37 37 33 28 25 26 32
55 55 54 50 44 38 37 36 30 24 21 20 21 23 22 20 16 15 17 20 19 17 19 19 20 17 24 44 56 70 89 96 93 92 96 100 94 85 77 69 63 58 59 62 57 46 39 37 32 27 27 30
47 47 46 42 37 34 33 32 29 25 24 24 26 27 25 21 17 16 16 19 19 18 23 21 19 20 21 29 41 52 65 76 79 78 87 96 95 90 77 62 55 56 60 62 62 57 48 42 39 34 33 35
42 40 37 35 34 35 35 37 38 36 33 31 31 30 26 21 17 18 18 18 19 19 24 22 17 20 25 27 35 51 61 63 65 68 78 89 97 96 82 68 63 61 64 64 63 60 53 50 48 43 40 41
34 34 35 37 40 43 47 50 52 48 42 36 32 30 26 22 19 19 21 21 21 22 23 22 18 19 27 36 43 56 71 73 70 71 77 84 92 92 84 79 76 72 71 74 75 69 59 55 55 53 50 49
34 39 44 49 52 55 58 58 56 50 43 36 32 29 26 24 21 19 21 26 28 27 26 22 19 20 24 36 54 70 80 83 82 85 89 86 81 80 81 83 85 85 82 82 84 80 69 62 58 59 58 58
44 47 52 55 56 54 54 52 48 43 39 35 32 29 28 26 24 21 22 27 31 31 30 25 19 21 23 26 43 75 95 91 88 92 94 96 91 84 81 80 83 86 88 87 89 86 80 73 65 64 65 64
45 44 45 45 45 43 42 41 39 36 34 33 32 31 31 30 29 26 24 25 28 29 30 29 22 18 23 25 26 56 97 103 97 96 93 96 103 102 99 95 92 91 94 96 98 97 92 87 76 70 70 70
38 36 35 34 35 35 34 35 35 34 33 33 34 35 36 35 32 29 26 24 23 25 26 28 27 21 19 26 24 37 79 103 103 103 100 98 102 106 108 108 107 105 104 104 106 105 101 99 91 83 78 73
35 33 32 31 31 32 33 35 36 38 38 38 36 36 37 35 31 27 25 22 19 20 23 25 27 26 21 23 26 30 56 87 100 104 104 105 107 106 105 104 105 108 109 109 109 107 103 101 100 98 95 87
35 33 33 33 33 35 36 39 40 41 41 40 37 33 31 29 26 23 21 19 18 17 19 24 27 28 24 22 25 26 36 60 85 100 103 103 102 100 102 101 100 102 105 108 106 106 106 101 99 101 101 101
37 36 36 36 35 36 37 38 38 38 36 33 30 26 23 22 21 19 18 17 16 16 15 19 25 29 28 24 24 25 26 37 58 81 94 100 101 101 104 105 102 100 101 103 102 103 104 101 100 100 100 101
35 35 36 35 33 32 31 30 29 27 26 25 23 21 19 17 17 17 16 16 15 14 14 15 21 27 31 27 24 25 26 27 34 49 67 85 100 104 104 104 105 102 100 100 102 103 101 101 102 100 100 101
29 29 29 28 27 25 23 21 19 18 17 18 18 18 17 16 16 16 15 16 15 13 13 13 16 22 30 31 26 26 28 28 27 31 40 58 81 97 102 103 104 103 101 98 99 103 102 102 102 101 102 101
25 24 23 22 21 20 19 18 16 15 14 14 15 15 16 16 15 15 15 15 15 15 14 13 13 16 24 31 29 28 30 30 28 29 31 38 55 77 94 101 102 102 102 102 99 98 101 104 101 100 102 100
20 20 20 19 19 18 17 17 16 15 14 13 13 14 14 16 16 15 15 15 15 15 15 14 13 13 17 25 30 30 31 32 30 30 31 32 38 55 76 90 95 95 96 100 102 97 96 101 102 103 101 99
16 16 16 16 16 17 16 16 16 15 14 14 13 13 13 14 15 16 15 15 15 15 15 14 14 14 14 18 26 30 31 33 34 33 32 34 37 44 58 72 80 84 84 87 95 99 96 93 94 101 104 102
13 13 13 14 14 15 15 14 15 15 15 15 14 13 13 13 14 15 16 15 15 15 15 15 14 14 14 14 19 27 30 32 36 38 36 36 38 41 49 60 68 73 79 81 84 92 97 94 87 87 94 103
12 12 12 12 12 12 13 13 13 13 14 14 15 14 14 13 13 14 15 16 16 15 14 15 14 14 14 14 16 21 28 31 35 40 40 38 37 39 46 56 63 69 76 80 80 83 89 92 90 84 80 87
13 13 13 12 12 12 13 13 13 13 13 13 14 14 14 14 14 13 14 16 16 16 15 14 14 14 13 15 16 17 23 29 33 38 42 43 41 39 42 50 58 65 71 76 80 84 86 85 87 88 82 79
13 13 13 13 13 13 13 13 14 14 14 14 14 14 15 15 15 14 14 15 16 17 17 16 15 14 13 14 15 16 18 24 30 36 41 45 46 43 41 44 50 57 64 73 78 80 83 83 80 82 88 88
12 12 12 12 13 13 13 13 14 15 15 15 15 14 15 15 16 16 16 15 15 17 18 19 17 16 14 13 14 15 17 19 25 32 38 44 49 49 46 44 46 50 55 66 80 81 79 82 80 76 83 93
11 11 11 11 11 11 11 12 13 14 15 16 17 17 16 16 16 17 18 18 17 17 18 19 20 19 17 15 14 14 16 18 20 26 33 41 47 51 52 49 47 48 49 59 79 86 81 81 83 77 77 87
9 9 9 9 9 9 9 9 10 10 11 13 15 16 17 18 17 18 19 20 20 20 19 19 20 21 20 19 17 14 14 16 20 23 26 33 43 50 53 54 53 50 48 51 64 81 87 84 85 87 82 83
8 8 8 8 8 8 8 8 8 8 9 9 10 12 14 16 17 17 17 18 19 21 20 19 19 19 21 21 20 18 15 14 17 23 25 25 34 46 52 53 55 56 53 49 50 63 81 87 91 96 93 91
7 7 7 8 7 7 8 8 9 9 9 9 9 9 10 11 13 14 15 16 16 18 19 19 18 17 18 19 21 20 19 16 14 19 26 26 26 36 49 53 53 55 57 56 51 49 59 76 93 99 97 99
7 7 7 7 8 8 7 7 8 9 9 10 10 10 10 10 10 12 13 14 15 15 17 18 18 17 16 16 18 20 21 20 16 15 22 27 26 27 37 48 53 54 54 57 59 54 49 55 72 89 98 103
6 6 6 6 6 7 7 7 7 8 8 9 9 10 10 11 11 11 12 13 14 14 15 16 18 18 18 16 15 17 19 20 19 18 19 22 26 28 29 36 48 53 53 53 58 59 54 49 51 65 84 97
Wind_Speed
100 100 100 101 101 101 102 101 100 99 97 95 94 91 88 86 83 79 75 72 69 67 64 63 65 64 61 62 63 66 70 72 75 75 74 75 76 77 78 78 77 76 76 75 73 72 73 75 78 81 82 85
101 102 102 102 102 103 103 102 99 98 96 94 93 90 87 85 81 76 72 69 67 65 63 62 64 64 62 62 64 67 69 73 77 77 76 76 77 79 81 81 81 81 79 78 77 75 75 75 78 81 82 83
102 103 103 104 104 104 103 101 99 97 95 93 92 90 87 84 79 73 70 67 65 63 62 60 61 64 65 65 67 70 71 72 76 78 78 78 80 82 83 83 83 83 81 79 78 77 77 78 79 81 82 83
104 104 105 105 105 104 101 100 98 96 95 93 91 89 86 83 78 71 67 65 63 62 61 60 61 64 68 70 71 73 74 75 77 80 79 80 84 86 86 86 86 85 83 81 80 79 79 80 81 81 82 83
105 105 105 105 104 102 100 99 98 97 95 93 90 88 85 82 77 70 66 63 62 61 59 60 62 66 70 73 76 77 80 81 83 85 84 83 86 88 88 88 87 86 84 83 82 81 80 80 80 81 82 83
104 104 103 102 101 100 98 97 97 96 95 92 89 87 84 80 76 71 67 63 61 59 59 60 62 67 72 75 78 81 83 85 87 88 89 89 89 90 91 89 87 86 85 84 83 82 81 80 80 80 80 82
102 102 101 100 99 98 98 96 96 95 94 91 88 86 84 81 77 72 69 65 60 58 58 60 63 67 72 75 78 82 85 87 88 89 90 90 91 93 93 92 89 88 86 86 84 83 83 81 80 80 79 80
101 100 100 99 98 97 96 95 94 94 93 91 89 87 85 82 78 72 68 65 62 60 58 60 63 67 72 77 79 83 87 89 89 90 91 91 92 94 95 93 92 89 88 87 87 86 85 83 82 80 79 79
100 99 98 97 97 96 95 95 94 93 93 92 90 88 86 82 79 73 68 64 62 62 61 59 62 66 71 77 82 84 87 90 91 92 93 94 94 95 95 94 92 91 89 89 89 88 87 86 85 82 81 79
100 99 98 97 97 96 96 95 95 94 93 93 91 89 86 83 79 75 69 64 62 63 64 62 62 65 70 77 83 87 89 91 93 94 95 96 95 95 95 94 93 91 91 90 90 90 89 88 87 85 84 83
100 99 99 98 98 98 97 96 96 95 94 92 91 90 87 84 80 77 71 66 64 64 65 65 64 66 70 75 82 87 91 93 95 96 97 97 96 96 96 95 94 92 92 92 91 91 90 90 89 87 86 86
102 101 101 100 99 99 98 97 96 95 94 92 90 89 87 85 82 79 75 70 66 65 66 66 66 67 70 74 80 87 92 96 97 98 99 99 98 98 97 97 96 94 93 93 92 92 91 91 91 89 88 87
104 103 102 102 100 99 98 97 96 94 94 92 90 89 88 87 84 81 78 74 70 67 67 68 69 69 71 74 79 86 92 96 99 100 101 101 101 101 100 99 98 97 96 95 94 93 93 92 92 91 90 90
104 104 103 102 101 100 99 97 96 95 94 93 92 90 89 87 86 83 80 78 74 71 69 69 70 71 73 76 79 84 90 96 99 101 103 103 102 102 102 101 100 99 98 97 96 95 95 94 94 93 92 91
103 103 103 103 102 100 99 98 97 95 94 94 93 92 90 89 87 85 83 80 78 75 72 70 71 72 74 78 81 83 87 93 99 102 104 105 104 104 104 104 103 101 100 99 99 98 97 97 96 96 95 94
102 102 102 102 102 102 101 100 98 96 95 94 94 93 92 90 88 86 84 82 81 79 75 73 72 74 75 79 82 83 85 90 95 101 105 106 106 106 107 106 106 105 103 102 101 101 100 99 98 98 97 97
102 102 102 102 102 102 102 101 100 98 96 94 93 93 93 92 90 88 85 84 83 81 79 77 75 75 77 80 82 84 87 90 93 97 101 105 107 109 109 109 108 108 107 105 104 104 103 102 101 100 99 99
102 102 102 102 102 102 102 102 101 100 98 96 94 93 93 93 92 90 88 86 85 83 82 81 79 77 78 81 83 85 88 92 93 95 99 102 106 109 111 111 111 111 110 109 107 107 107 106 105 103 102 101
101 101 101 102 102 102 102 102 102 101 100 99 97 95 94 94 93 92 91 89 87 86 85 84 82 81 81 82 84 86 89 92 93 95 98 101 104 107 110 112 113 113 112 111 110 110 110 109 109 107 106 104
100 101 101 101 101 101 102 102 101 101 101 100 99 97 95 94 94 94 93 92 90 88 88 87 85 84 83 84 86 88 90 92 94 96 99 101 103 106 108 110 113 113 113 113 112 112 112 112 111 110 109 108
101 101 101 101 101 101 102 102 102 101 101 101 100 99 97 96 95 95 95 94 93 91 90 89 88 87 87 86 87 89 91 93 95 97 99 102 105 106 108 110 112 113 114 114 114 114 114 114 113 112 112 111
104 104 103 103 102 102 102 103 103 102 102 102 102 101 100 99 97 96 96 96 95 94 93 92 91 90 89 89 89 90 92 94 96 98 100 102 105 107 109 111 112 113 115 116 116 116 116 116 115 114 113 112
107 106 106 105 104 104 104 104 104 104 104 103 103 103 102 102 101 99 97 97 97 97 96 95 94 93 92 92 92 92 93 95 97 99 100 102 105 106 109 112 114 115 116 117 118 118 118 118 117 116 116 114
108 108 107 107 106 106 106 106 106 106 106 106 105 105 104 104 104 103 101 100 99 99 99 98 97 96 95 94 95 95 95 96 98 100 101 103 105 106 108 111 115 117 118 119 119 120 120 120 119 118 118 117
109 108 108 108 108 108 107 107 107 107 108 108 108 108 107 106 106 106 105 104 102 101 101 101 100 99 98 97 97 97 98 98 99 101 102 104 105 107 108 110 114 118 119 119 121 122 122 121 121 119 119 119
110 110 110 109 109 109 109 108 108 108 109 109 110 110 110 109 109 108 108 108 106 105 104 103 103 103 102 101 100 100 100 100 101 102 104 105 106 107 109 111 113 117 119 121 122 124 124 122 122 121 120 120
110 110 110 110 110 110 110 110 109 109 109 109 110 111 112 112 112 111 111 110 110 109 108 107 106 106 106 105 104 103 102 102 102 104 105 106 107 108 110 111 113 116 119 121 123 126 126 124 123 123 122 121
109 110 110 111 111 111 111 111 111 111 111 110 110 111 112 112 113 114 113 113 113 113 112 111 109 109 109 109 108 107 106 105 104 105 107 108 108 109 111 113 114 116 119 121 123 125 127 127 126 125 124 124
109 109 110 110 111 111 111 111 112 112 113 112 112 112 112 112 113 114 115 115 115 115 115 114 113 112 111 112 111 111 110 109 107 106 108 110 110 111 112 114 115 117 119 121 123 124 126 128 130 129 128 127
107 107 108 109 110 110 111 111 111 112 113 113 114 114 114 114 114 114 115 116 116 116 116 116 116 115 114 113 113 113 113 113 111 108 109 112 112 113 114 116 117 118 119 121 123 125 125 126 129 131 132 132
104 105 105 106 107 108 109 109 110 110 111 112 113 114 115 115 115 115 115 116 117 118 118 118 118 117 117 115 115 115 115 116 115 112 112 113 114 115 116 117 118 119 120 121 123 125 126 125 126 129 132 135
Wind_Direction
278 278 279 279 280 281 281 282 282 281 281 281 281 281 281 281 281 281 280 280 278 276 271 266 262 258 252 248 246 243 244 245 246 246 246 248 251 252 251 252 252 250 249 248 245 242 240 237 235 235 237 240
278 278 279 280 280 282 282 282 282 281 281 281 281 281 281 281 280 280 280 279 276 273 269 264 260 256 248 241 240 240 240 242 243 245 245 246 247 249 250 251 252 252 250 249 247 245 243 240 238 235 235 237
278 279 279 280 281 282 282 282 282 282 282 282 282 282 281 281 280 280 279 277 274 271 267 261 256 251 245 239 235 236 238 239 242 244 245 245 246 246 248 249 250 251 251 250 248 247 245 243 240 237 235 236
279 279 280 281 281 282 282 282 282 282 282 282 282 282 282 281 280 278 277 275 273 269 264 258 252 247 243 239 235 232 233 235 237 240 242 243 245 246 246 247 248 250 250 250 250 248 246 244 242 240 237 236
279 280 280 281 282 282 282 282 282 282 282 282 282 282 281 281 279 277 275 274 271 267 261 255 250 246 242 239 237 234 232 233 234 237 238 239 243 245 247 248 249 250 250 249 250 250 248 247 245 244 241 239
280 280 281 281 281 281 281 282 282 282 282 282 281 281 281 280 279 277 275 273 269 264 257 252 248 246 244 241 241 239 237 236 236 237 238 239 242 245 247 248 249 250 250 249 248 249 249 248 248 247 245 243
281 281 281 280 280 281 281 281 281 282 281 281 281 281 280 279 279 278 276 273 268 261 255 251 247 244 244 243 242 242 241 241 240 240 240 240 241 244 246 248 249 249 249 249 249 248 248 249 249 249 248 246
280 280 280 280 280 280 280 281 281 281 281 281 280 280 280 279 278 277 276 274 269 262 254 249 247 244 242 242 241 240 241 242 242 243 242 241 241 243 245 247 248 248 248 249 250 249 249 249 249 250 250 249
279 279 279 279 279 279 279 279 279 279 280 280 280 280 279 279 278 276 273 272 269 265 257 249 245 244 241 240 239 239 240 241 242 243 243 243 242 243 245 246 247 248 248 249 249 250 250 250 249 249 249 249
279 279 278 278 278 278 278 278 278 278 278 279 279 279 278 278 276 275 272 269 266 264 261 253 246 243 241 239 238 237 238 240 242 242 243 244 244 245 245 246 246 247 248 248 249 250 250 251 250 249 249 249
278 278 278 277 277 277 277 277 277 277 277 277 277 278 277 276 275 273 271 267 264 262 260 257 251 245 242 240 238 236 236 238 240 242 243 244 244 245 245 246 246 246 247 247 248 249 250 251 251 249 249 249
278 278 277 277 276 276 276 276 276 276 276 276 276 276 276 275 274 272 270 267 263 261 259 257 253 248 244 241 239 237 236 236 238 240 242 243 244 244 244 245 245 245 246 246 247 247 248 249 251 251 250 249
278 278 277 277 276 276 276 276 275 275 275 275 274 274 273 273 273 271 270 267 263 260 258 256 253 250 246 242 239 238 237 236 236 238 240 242 243 244 244 244 244 245 245 245 245 246 246 247 248 250 251 251
277 277 277 276 276 276 275 275 274 274 274 273 273 272 272 271 271 270 269 267 264 260 257 255 253 250 248 245 241 239 238 238 238 238 239 241 242 243 244 244 244 243 243 244 244 244 245 246 247 248 249 251
275 275 275 275 275 274 274 273 273 272 272 272 272 271 271 270 269 268 268 266 264 261 257 254 252 250 248 246 244 241 239 239 239 239 239 240 241 242 243 244 244 243 242 242 243 243 244 245 246 247 247 248
273 273 273 273 273 273 273 272 271 270 270 270 270 270 269 269 268 267 266 265 263 261 258 254 252 250 248 246 245 244 241 240 239 239 240 240 240 241 242 244 244 244 243 241 241 242 242 243 244 245 246 247
272 272 272 272 272 272 272 271 271 270 269 268 267 267 268 267 266 265 265 264 262 261 259 255 251 249 248 246 246 244 243 241 240 239 240 240 240 240 241 242 243 244 244 243 241 241 241 241 242 243 244 245
272 271 271 271 271 270 270 270 270 270 269 267 266 265 265 266 265 265 263 262 262 260 259 256 253 250 247 246 245 244 243 243 241 240 240 240 240 240 240 241 243 243 244 244 243 242 241 240 241 241 242 243
270 270 270 269 269 269 269 269 269 269 268 267 266 265 264 264 264 264 263 261 260 259 258 256 254 251 248 246 245 244 243 243 242 241 241 241 240 240 240 241 242 243 244 244 244 244 242 241 240 240 241 241
270 269 269 269 268 268 268 267 267 267 267 267 266 264 263 262 262 263 262 261 260 259 258 256 254 252 249 246 244 243 243 243 243 242 241 241 241 241 241 241 242 243 244 244 244 244 244 243 242 241 240 240
271 270 269 269 268 268 267 267 267 266 266 266 266 265 264 262 261 261 261 261 260 259 257 256 254 252 250 247 244 243 243 242 242 241 241 241 241 241 241 241 242 243 244 244 244 244 244 245 245 243 242 240
273 272 271 270 269 268 268 267 267 266 266 265 265 265 264 263 262 261 260 260 260 259 258 256 255 253 251 249 246 243 242 242 241 241 241 241 241 241 241 241 242 242 243 244 245 245 245 245 245 246 245 243
273 272 272 271 270 269 268 268 267 267 266 265 265 265 264 264 263 261 260 259 259 259 258 257 255 253 252 250 248 245 242 241 241 240 240 240 240 241 241 241 241 242 242 243 244 244 245 245 245 246 246 246
272 271 271 270 270 269 269 268 268 267 267 266 265 265 264 264 263 263 261 260 259 258 258 257 256 254 252 250 249 247 244 242 241 240 240 240 240 240 240 240 241 241 242 242 243 243 244 245 245 246 246 247
272 271 270 270 269 268 268 267 267 266 266 266 266 265 264 263 263 262 262 261 259 258 257 257 256 255 254 251 250 248 246 244 241 240 240 239 239 240 240 240 240 241 241 241 242 243 243 244 245 245 245 246
272 272 271 270 269 269 268 267 266 265 265 264 264 264 264 263 263 262 261 261 260 258 257 256 256 255 254 253 251 249 247 246 244 242 240 239 239 239 240 240 240 240 241 241 241 242 243 243 244 245 245 245
272 272 271 271 270 270 269 268 266 265 264 263 263 262 262 262 262 261 260 260 259 258 257 256 255 255 255 254 252 251 248 246 245 244 242 240 239 239 239 239 239 240 241 241 241 241 242 242 243 244 244 245
272 271 271 270 270 269 268 268 267 266 265 264 262 261 261 261 261 261 260 259 259 258 257 256 255 254 254 253 253 252 250 248 245 244 244 242 239 239 239 239 239 239 240 241 241 240 240 241 242 243 243 244
272 271 270 270 269 268 267 267 266 266 265 265 264 262 261 260 259 259 259 259 258 258 257 256 255 253 253 252 252 252 251 250 247 244 244 243 241 239 239 239 239 239 239 240 241 241 240 240 241 241 242 243
271 271 270 269 269 268 267 266 265 264 264 264 263 263 262 261 260 259 258 258 258 257 256 256 255 254 253 251 251 251 250 250 249 246 244 243 243 241 239 239 239 239 239 240 240 241 241 240 240 240 241 241
272 271 270 269 268 268 267 266 265 264 263 263 262 262 261 261 260 259 258 257 257 256 256 255 255 254 253 252 251 250 249 249 249 247 246 244 243 242 241 239 239 239 239 239 240 241 241 240 240 240 240 240